GFSSW_700_rhum_336.txt.gz
RH
51 44 40 19 25 12 7 18 23 23 20 24 32 40 22 6 6 14 21 27 26 20 42 49 50 45 55 56 54 54 50 48 44 51 62 50 84 85 82 82 65 48 62 21 14
28 48 46 40 18 26 8 8 20 23 18 19 28 40 38 8 9 14 25 23 30 48 50 48 46 47 53 53 51 51 59 56 52 59 66 51 81 87 82 77 81 38 27 15 16
16 18 44 45 39 18 24 5 10 20 22 15 23 37 42 34 14 24 19 29 47 50 43 44 44 47 56 50 47 48 56 53 54 59 66 43 74 66 75 81 73 45 42 28 19
12 12 11 45 44 36 20 20 6 12 21 21 15 29 42 35 32 30 21 24 49 45 41 38 41 51 60 54 52 48 52 51 39 44 68 72 71 71 70 68 69 56 49 44 25
18 15 9 13 47 40 28 25 10 7 15 21 17 19 34 35 29 29 27 29 46 46 41 44 45 50 53 53 46 46 56 53 52 66 69 67 70 70 71 70 69 62 54 43 30
16 18 11 9 17 40 37 18 26 5 9 18 19 15 27 32 32 29 40 27 26 43 38 40 50 60 56 49 50 58 58 62 51 68 70 71 72 70 70 63 67 57 47 48 41
17 18 18 13 9 13 33 36 23 13 6 15 17 15 17 28 29 32 36 44 38 32 30 35 41 55 48 49 54 56 60 62 65 69 66 66 69 55 66 61 51 44 41 40 40
10 18 19 20 15 9 15 32 23 25 6 11 15 13 15 25 27 27 37 42 43 46 53 51 46 54 53 52 54 56 51 50 57 52 62 56 56 58 60 55 43 44 42 42 37
9 10 14 20 19 14 11 22 31 25 8 7 14 13 20 23 18 21 51 53 59 58 54 45 39 50 55 55 51 48 41 38 55 56 52 42 50 58 57 45 41 40 46 50 55
9 9 10 12 18 16 10 15 31 23 14 6 11 12 21 26 27 25 44 55 53 53 44 37 41 46 49 47 40 37 41 33 43 47 45 48 44 54 42 29 39 38 46 54 59
7 10 9 10 12 20 13 20 39 26 24 14 16 12 23 20 18 13 24 41 57 49 46 46 42 39 37 37 36 34 33 24 25 35 43 41 37 35 36 33 26 60 63 69 66
3 8 10 10 10 25 22 26 49 33 30 11 8 12 14 15 16 25 20 41 56 49 40 38 39 33 31 30 31 33 22 21 24 36 40 34 32 31 27 30 25 35 56 61 63
2 4 9 10 11 20 35 24 48 52 30 27 11 7 8 11 11 32 20 37 46 44 38 38 32 36 36 35 31 22 22 20 22 32 30 28 24 22 22 24 26 33 44 49 52
2 2 7 11 13 22 31 42 44 56 35 39 24 12 15 9 13 30 34 40 43 39 35 32 33 41 40 30 26 23 24 22 24 24 22 25 23 15 17 16 21 27 30 38 40
2 2 5 10 12 33 31 51 60 55 93 33 30 17 16 12 18 18 16 27 40 37 33 35 33 32 37 31 31 32 29 25 22 23 22 20 18 16 13 14 16 24 31 32 33
2 2 4 10 11 13 53 67 65 51 60 31 22 19 15 15 17 22 23 16 34 33 37 35 33 33 37 32 34 36 27 25 24 24 25 22 20 16 18 17 18 22 25 28 31
2 2 4 7 10 12 56 77 68 73 32 23 21 19 17 19 16 17 27 31 28 34 37 33 33 33 34 39 38 37 32 31 35 41 34 22 19 21 23 17 22 26 17 19 20
3 2 3 6 10 13 61 89 85 62 36 24 22 19 18 18 17 16 18 24 29 28 27 29 29 29 24 30 35 32 32 38 49 38 32 21 17 25 25 27 32 22 12 16 16
3 3 2 6 9 11 71 86 79 57 32 30 20 20 19 18 19 18 18 18 22 26 27 27 26 29 29 31 30 28 29 30 33 33 37 30 25 27 24 28 34 35 20 18 14
4 3 3 4 8 9 41 64 84 59 51 26 24 21 20 19 20 21 20 20 20 22 27 27 27 30 30 30 30 29 36 35 31 67 47 26 23 21 23 28 31 38 23 10 9
4 5 6 6 9 7 20 54 81 66 50 34 28 24 22 20 21 20 21 20 19 20 28 29 31 34 32 31 32 30 33 36 42 42 47 42 27 20 23 25 31 32 16 14 12
8 10 25 10 11 6 9 71 81 77 70 47 39 33 25 23 22 21 21 20 22 20 30 32 31 33 35 31 30 32 34 33 40 40 42 34 33 30 27 29 31 27 18 14 13
12 64 43 33 23 44 57 61 81 76 82 69 53 44 35 32 26 25 22 23 23 18 29 29 32 36 32 31 28 24 29 37 36 42 43 50 35 29 34 34 20 16 18 20 23
15 34 36 39 30 82 70 66 63 71 71 78 65 54 44 39 36 32 26 26 22 19 26 31 34 30 35 34 38 28 22 29 32 42 48 39 36 31 28 35 33 32 27 29 35
17 21 81 52 22 51 92 73 65 62 70 77 87 66 48 42 42 35 34 35 30 15 18 28 36 32 31 32 30 28 25 31 23 14 32 20 25 23 34 37 37 38 37 34 23
20 62 62 46 97 98 78 86 90 81 60 62 87 90 64 52 47 46 42 33 40 30 16 19 42 40 38 32 26 21 18 29 34 41 38 35 31 31 32 31 34 36 34 23 19
26 84 56 36 78 88 82 78 76 85 82 79 64 70 90 76 55 45 46 42 43 40 35 42 37 42 42 35 27 31 31 31 33 33 36 36 35 39 41 39 41 31 22 20 18

GFSSW_700_rhum_339.txt.gz
RH
29 42 43 38 18 23 9 9 20 24 20 22 33 35 6 4 4 8 15 11 14 19 26 42 45 53 54 55 57 50 55 61 73 72 61 54 54 82 82 78 63 37 21 20 15
16 17 32 42 38 19 24 7 11 21 23 17 28 40 24 5 5 9 13 12 21 46 50 47 46 49 51 55 54 48 55 61 64 58 60 51 65 77 76 83 80 53 21 19 16
11 9 9 20 42 38 19 24 6 13 22 21 19 37 40 14 10 14 10 15 46 50 48 42 44 45 51 56 54 45 51 58 52 63 58 53 62 63 75 73 62 54 23 24 16
11 10 9 7 15 42 37 18 22 6 15 22 19 25 41 35 32 30 23 19 48 46 41 40 46 52 56 56 50 45 55 48 44 58 57 57 76 68 68 72 67 51 40 45 36
13 12 11 9 6 27 39 34 20 15 7 17 21 16 34 34 31 31 33 16 49 45 38 40 45 46 52 56 51 46 51 46 39 50 61 74 74 69 76 69 70 62 53 53 44
11 13 12 12 6 7 33 34 27 24 7 10 19 19 18 34 33 33 30 24 38 49 41 42 50 54 54 54 51 54 57 44 33 63 69 69 69 68 74 72 68 62 58 49 47
8 9 13 13 12 8 6 25 33 19 19 6 15 19 18 22 31 34 36 40 25 32 42 34 36 38 61 52 44 43 54 55 61 47 45 66 68 67 70 71 66 63 49 40 39
8 7 8 11 14 14 10 6 25 28 23 6 11 18 16 16 26 28 32 34 42 29 29 39 54 46 50 53 48 50 57 58 54 50 43 54 61 57 68 68 64 57 43 38 34
8 8 8 8 9 14 13 7 13 30 22 11 8 16 14 15 18 22 46 48 53 55 55 54 58 47 42 47 52 53 50 50 53 56 47 43 47 55 56 52 45 42 44 46 43
3 6 8 8 7 8 14 10 10 26 24 19 6 13 16 20 27 16 48 54 56 56 53 49 40 37 41 48 54 49 45 42 49 59 54 33 37 59 57 57 40 23 27 45 54
2 2 4 8 8 7 12 13 15 25 25 19 11 10 21 20 28 21 18 41 49 38 45 42 44 45 43 43 37 38 50 38 32 40 55 40 29 43 42 42 39 33 25 26 38
4 2 2 5 8 8 10 18 19 28 27 24 13 8 15 21 17 19 18 19 43 47 36 42 45 39 38 34 35 36 33 26 34 36 48 40 35 31 33 33 31 32 26 25 45
6 4 2 3 8 8 10 22 20 36 34 23 24 16 9 15 16 12 16 21 51 48 40 44 39 37 37 37 34 30 24 23 32 41 35 23 24 23 22 25 34 32 29 36 48
8 6 3 3 7 9 10 18 28 29 37 23 21 21 11 9 10 13 29 24 43 50 45 39 35 34 34 36 27 26 27 23 22 23 24 23 25 22 17 16 29 31 32 40 46
8 6 4 3 6 7 11 24 39 41 88 34 38 26 17 14 13 12 32 30 18 38 39 36 35 32 33 33 31 28 28 28 23 24 24 20 23 20 17 22 33 32 32 31 31
9 6 3 3 6 6 22 46 52 44 66 30 29 26 16 15 16 22 20 26 24 41 38 36 33 33 30 33 33 32 31 25 24 22 28 19 23 24 18 24 33 33 32 30 32
12 8 4 3 5 7 18 65 56 68 32 28 23 22 19 16 15 21 26 21 28 33 29 33 36 33 30 39 36 34 33 33 40 42 39 26 21 22 22 19 18 19 18 20 24
18 11 6 2 4 8 17 72 76 56 30 24 24 21 19 17 16 17 21 21 25 29 28 34 34 32 29 30 40 36 30 34 49 52 39 32 20 25 25 21 17 15 16 13 19
18 13 7 3 4 8 18 82 61 43 42 31 24 20 20 18 18 18 16 17 25 26 30 29 31 29 29 26 31 34 32 28 35 32 38 33 30 27 27 27 23 19 16 15 16
18 12 7 3 3 8 14 55 55 44 48 46 29 23 20 20 19 20 18 18 17 23 23 24 30 29 29 27 31 30 34 33 32 51 50 33 27 26 28 34 28 23 15 11 9
14 9 11 4 3 7 8 31 45 57 53 54 31 29 25 25 19 19 20 20 20 17 22 24 26 32 31 30 29 29 33 36 36 32 54 51 31 25 26 31 28 24 20 17 14
9 9 19 10 9 5 7 10 16 52 66 78 44 36 32 30 25 20 20 21 22 19 23 27 27 34 34 33 30 34 33 32 36 43 44 38 33 28 25 28 27 26 26 27 17
10 11 31 30 20 9 6 8 15 24 66 82 65 52 34 34 35 25 22 25 22 20 24 29 32 33 38 35 31 28 33 36 33 34 35 45 36 32 31 31 31 30 31 21 26
14 21 22 53 28 27 38 11 26 31 37 80 79 68 52 44 40 32 32 28 24 22 19 25 31 32 36 34 33 31 28 26 37 41 41 41 39 40 36 34 33 27 26 31 30
18 19 36 50 30 45 47 76 48 57 59 68 74 75 66 59 47 37 37 36 28 26 23 24 33 31 32 32 35 30 28 21 20 24 38 35 39 19 26 28 31 32 35 35 35
21 25 24 26 32 59 44 46 78 65 68 62 58 68 74 61 52 48 43 48 37 34 23 20 30 33 30 33 35 29 24 26 27 27 23 17 20 32 35 33 36 37 35 39 32
24 23 25 25 31 66 77 92 38 84 80 93 86 73 67 59 63 64 56 48 45 44 40 20 22 41 42 38 36 32 26 22 25 30 33 34 35 37 37 36 38 38 42 38 29

GFSSW_700_rhum_342.txt.gz
RH
17 20 36 38 34 16 22 7 16 22 20 19 29 31 4 3 6 11 14 9 9 12 19 43 52 54 56 55 55 57 62 58 60 62 63 68 59 80 86 71 47 25 26 22 16
14 11 10 25 40 34 19 22 7 17 22 17 23 33 12 4 5 12 15 11 14 28 46 49 51 53 55 55 56 55 58 56 54 59 59 65 63 83 79 62 68 60 30 28 17
10 10 8 6 15 38 33 20 22 7 17 22 17 29 34 6 6 18 14 12 32 46 48 44 50 53 58 58 52 50 51 50 49 46 55 65 71 86 85 80 72 67 63 26 16
12 11 10 8 7 8 34 33 19 21 7 18 22 19 34 25 27 27 13 17 42 49 46 43 52 53 54 56 54 56 54 54 44 27 48 59 68 76 75 76 73 62 59 38 39
11 12 12 10 9 5 12 34 32 18 14 10 20 19 26 32 31 31 29 21 47 44 38 47 46 50 54 56 56 52 54 53 46 44 43 59 63 75 69 69 67 63 59 55 51
7 7 9 12 10 6 4 27 31 29 20 7 14 21 17 33 30 31 34 32 39 46 38 48 44 42 52 56 51 50 50 46 45 70 71 72 78 73 68 68 71 69 65 61 49
7 6 6 7 12 11 6 4 25 31 19 19 7 18 19 25 30 27 33 38 18 47 40 39 34 50 50 54 53 52 53 52 50 59 72 75 72 70 63 64 69 71 66 53 42
6 6 6 6 6 9 11 8 5 25 28 21 8 10 17 18 30 26 28 32 40 23 39 34 39 54 56 52 52 53 49 50 54 54 59 66 54 62 53 56 58 62 59 45 40
3 4 5 6 6 6 8 12 7 10 29 22 14 6 15 16 18 26 37 32 43 54 29 36 44 59 56 45 45 41 45 48 55 54 55 52 50 57 58 56 50 48 44 41 39
6 4 3 3 6 6 6 11 10 5 21 25 20 8 12 16 15 18 42 49 46 51 50 48 52 46 41 39 35 34 51 52 48 45 53 49 47 47 55 55 55 54 39 29 20
10 7 4 3 3 4 6 6 11 10 6 24 16 10 14 16 19 21 43 55 58 55 51 49 44 39 40 43 41 42 48 44 34 40 43 42 40 45 48 54 52 49 40 28 24
14 11 8 4 3 2 5 6 14 17 12 14 23 16 11 16 19 23 24 50 50 33 30 44 46 42 40 41 35 36 42 30 24 26 43 41 33 43 52 35 34 34 40 33 29
19 14 11 7 4 2 5 6 10 14 19 15 16 21 12 15 17 16 18 16 18 34 30 47 41 41 40 38 31 27 26 26 33 42 42 42 45 48 38 33 30 44 51 37 33
22 18 12 11 7 4 6 9 12 19 28 12 12 17 20 12 13 16 14 17 26 38 31 44 40 38 38 35 34 29 26 25 28 35 47 25 27 22 18 16 24 38 52 33 33
24 21 15 11 7 5 9 12 19 24 50 27 23 22 19 17 14 10 17 21 24 49 50 42 36 35 34 34 33 31 28 29 25 23 23 23 21 22 19 16 20 40 40 35 36
23 19 16 9 8 5 6 17 39 39 50 36 30 28 22 17 14 18 23 22 29 27 45 41 36 34 33 32 31 34 33 30 25 24 24 23 21 23 18 18 34 44 41 33 32
27 23 16 10 7 5 7 33 56 56 22 28 29 29 25 20 16 27 22 29 31 31 33 40 37 37 37 34 30 34 35 32 33 45 38 28 26 25 20 30 34 33 35 34 31
31 28 23 13 8 5 8 40 82 46 22 31 28 23 23 19 17 17 20 25 24 29 20 38 36 34 22 27 27 38 36 34 42 54 43 34 26 26 26 28 32 33 26 24 27
33 29 23 17 9 4 6 50 62 28 29 36 27 23 22 20 17 16 26 24 19 22 27 30 29 27 29 30 30 39 38 33 34 42 39 32 32 32 29 24 23 22 19 17 12
32 27 20 14 11 4 6 12 41 26 61 53 42 29 21 20 18 18 18 18 18 17 23 25 33 30 30 30 28 33 32 33 35 53 49 35 36 31 30 27 25 26 18 13 10
26 23 19 12 10 5 5 7 15 18 57 63 43 34 29 28 25 20 19 19 18 17 17 24 27 30 31 30 28 31 33 35 34 34 54 53 32 26 28 27 25 26 27 16 14
18 17 22 17 11 6 4 5 7 14 34 70 68 59 36 32 29 27 21 19 20 19 20 19 27 31 30 32 32 31 29 31 36 43 38 41 33 28 28 27 26 25 26 27 27
11 10 22 20 20 11 6 6 6 5 13 71 80 73 54 42 40 34 24 20 20 22 21 20 31 35 34 34 34 32 30 33 34 34 36 49 42 36 34 32 33 30 27 30 31
8 9 9 17 37 24 21 11 8 8 6 14 74 73 65 54 48 41 34 25 23 22 21 26 29 30 33 32 34 33 31 31 35 36 34 33 38 38 36 34 33 33 34 33 32
10 11 11 21 26 40 36 34 34 20 17 13 22 70 74 71 50 44 42 38 26 22 21 21 23 26 26 32 34 32 33 32 29 28 36 32 40 41 41 42 36 32 32 34 33
13 12 10 16 19 19 45 54 38 66 52 32 68 46 80 77 70 55 52 44 34 28 26 24 22 22 32 32 35 34 33 30 25 23 23 22 19 24 33 30 34 33 34 34 37
14 12 12 16 25 34 64 97 58 48 74 82 82 84 56 75 77 78 70 53 46 40 36 31 23 26 33 31 31 40 36 30 26 23 24 29 32 33 31 33 34 34 35 38 42

GFSSW_700_rhum_345.txt.gz
RH
12 10 16 33 32 30 18 11 12 22 21 20 31 28 4 3 5 9 8 10 11 14 22 37 47 36 55 56 54 54 56 60 61 59 58 66 53 54 62 80 58 36 22 20 16
9 9 7 7 24 33 31 17 11 13 22 18 24 35 9 4 9 14 14 9 11 20 43 53 54 55 55 59 57 57 57 60 52 54 53 64 61 47 55 64 69 64 49 33 17
10 9 8 8 5 13 33 30 17 11 15 22 18 30 32 6 10 16 18 13 19 39 51 51 52 53 58 60 60 57 56 51 52 42 35 56 72 66 56 65 70 71 63 58 19
13 12 12 10 8 5 5 27 31 17 9 17 21 20 34 8 12 26 16 17 32 51 49 47 50 55 52 58 57 53 51 53 50 41 25 46 71 66 63 74 84 73 60 56 39
7 8 10 12 10 7 4 6 29 29 19 7 19 18 27 23 29 31 21 18 47 47 44 46 46 51 55 57 54 55 54 56 45 30 31 54 61 68 75 77 76 67 61 53 49
6 6 6 7 12 10 6 3 20 30 24 18 9 21 18 33 29 28 21 20 48 46 41 46 45 44 51 56 54 52 52 48 42 38 44 62 70 78 70 72 71 69 67 66 57
6 6 5 5 6 10 11 5 3 23 28 19 10 13 20 26 30 29 31 14 34 48 42 47 37 50 48 55 54 54 55 53 51 44 45 69 74 56 66 68 63 66 62 57 41
5 5 5 6 5 5 9 11 7 3 19 25 19 7 14 20 26 27 30 36 16 43 44 39 35 49 57 58 57 55 52 54 55 56 57 58 49 49 51 54 52 60 63 56 41
6 5 4 4 5 5 5 8 11 7 6 26 19 15 8 17 21 28 28 30 41 28 31 31 32 42 58 57 49 46 44 41 54 54 61 64 48 43 38 52 55 48 42 46 42
12 10 8 5 4 4 5 5 8 10 5 17 24 17 10 12 16 20 28 34 39 46 40 24 45 39 47 51 48 40 41 43 51 47 51 62 56 49 36 50 54 57 54 40 32
17 15 12 10 8 4 3 5 5 8 8 9 17 18 12 12 16 17 22 39 46 50 52 56 54 41 32 41 40 37 42 43 45 36 37 42 49 52 44 43 50 50 56 53 32
20 19 16 14 12 8 3 4 5 7 9 8 8 17 14 12 16 21 21 47 60 59 62 59 53 41 46 46 42 36 36 42 40 33 33 48 47 50 46 34 37 33 44 50 41
24 22 20 17 14 12 5 3 5 7 8 9 10 8 16 15 12 20 23 41 55 57 50 37 42 45 44 42 40 29 30 30 33 31 42 50 41 35 36 40 47 50 58 62 50
28 26 23 20 15 12 8 5 5 7 14 6 8 11 17 16 15 15 24 23 26 36 40 38 35 44 41 39 38 35 28 26 41 38 37 41 36 24 23 21 26 28 52 56 53
33 30 26 23 16 13 9 8 6 11 35 20 15 19 18 18 14 14 16 17 18 18 35 38 40 38 39 40 38 34 31 30 29 24 30 25 27 23 22 20 15 18 28 48 46
35 31 28 23 20 12 8 6 9 22 34 29 30 24 19 22 19 15 13 17 18 29 48 44 43 38 35 34 34 34 34 30 30 26 26 24 24 19 20 19 17 18 28 51 29
36 32 26 21 17 10 6 8 31 37 16 30 31 33 28 21 19 15 14 19 27 36 35 42 47 42 37 36 34 32 32 36 36 46 39 27 30 24 22 19 26 25 26 28 26
37 34 28 22 16 9 6 24 53 29 12 35 34 29 30 26 20 15 29 23 26 32 29 34 37 42 35 34 34 32 34 36 42 50 42 34 30 28 22 20 22 32 30 28 28
39 36 32 28 20 9 6 27 26 16 21 36 36 28 23 25 20 18 20 28 25 26 35 25 26 30 34 28 24 33 39 37 34 47 45 37 33 30 27 25 31 33 38 39 39
40 37 32 27 23 12 6 10 19 17 41 45 40 32 24 22 21 20 17 18 21 23 18 21 29 23 20 31 33 34 32 36 37 52 50 42 36 30 29 26 25 28 28 22 17
40 36 31 26 21 11 7 7 11 18 48 65 52 38 34 32 24 20 18 16 19 20 20 21 27 31 32 31 31 32 34 35 35 36 56 50 35 28 32 31 28 29 28 22 11
36 29 27 26 18 14 9 8 8 9 22 45 65 56 50 41 37 31 27 19 18 19 19 18 24 28 29 30 30 30 30 30 36 42 41 41 32 28 27 25 33 32 30 27 24
31 22 23 23 21 15 10 10 8 10 8 31 34 57 69 61 46 40 33 26 21 20 19 19 27 31 33 31 31 31 31 30 31 34 38 52 36 34 34 28 30 31 32 32 32
23 14 13 21 27 27 20 12 11 10 8 7 14 52 72 70 58 48 41 30 24 22 21 22 21 22 29 27 31 34 34 34 31 35 36 36 33 33 35 34 32 32 31 30 31
19 14 13 17 24 36 38 40 28 18 10 16 18 8 64 72 70 63 48 44 37 24 23 23 26 25 24 28 30 31 31 32 33 31 33 29 31 31 36 35 34 34 34 35 34
18 17 12 14 17 18 36 49 40 40 40 23 19 20 32 66 68 72 62 53 45 30 33 33 29 29 31 31 29 29 31 33 33 31 30 29 27 23 33 41 39 40 34 32 34
20 15 14 16 18 25 38 46 46 34 34 60 44 66 63 63 66 74 74 70 54 44 29 27 25 24 25 24 34 40 35 37 34 32 29 23 23 27 30 27 28 27 31 34 39